TimeEST,TemperatureF,Dew PointF,Humidity,Sea Level PressureIn,VisibilityMPH,Wind Direction,Wind SpeedMPH,Gust SpeedMPH,PrecipitationIn,Events,Conditions,WindDirDegrees,DateUTC
12:53 AM,24.1,19.0,81,30.34,10.0,Calm,Calm,-,N/A,,Clear,0,2012-02-26 05:53:00
1:53 AM,24.1,18.0,77,30.36,10.0,Calm,Calm,-,N/A,,Clear,0,2012-02-26 06:53:00
2:53 AM,24.1,19.0,81,30.38,10.0,Calm,Calm,-,N/A,,Clear,0,2012-02-26 07:53:00
3:53 AM,21.9,19.0,89,30.39,10.0,Calm,Calm,-,N/A,,Partly Cloudy,0,2012-02-26 08:53:00
4:53 AM,24.1,18.0,77,30.39,10.0,Calm,Calm,-,N/A,,Clear,0,2012-02-26 09:53:00
5:53 AM,21.9,18.0,85,30.40,10.0,Calm,Calm,-,N/A,,Clear,0,2012-02-26 10:53:00
6:53 AM,21.9,18.0,85,30.42,10.0,Calm,Calm,-,N/A,,Clear,0,2012-02-26 11:53:00
7:53 AM,25.0,21.0,85,30.42,10.0,Calm,Calm,-,N/A,,Partly Cloudy,0,2012-02-26 12:53:00
8:53 AM,28.9,21.9,75,30.42,10.0,Calm,Calm,-,N/A,,Clear,0,2012-02-26 13:53:00
9:53 AM,34.0,23.0,64,30.42,10.0,Calm,Calm,-,N/A,,Partly Cloudy,0,2012-02-26 14:53:00
10:53 AM,39.0,21.9,50,30.40,10.0,Calm,Calm,-,N/A,,Partly Cloudy,0,2012-02-26 15:53:00
11:53 AM,45.0,19.0,36,30.38,10.0,Calm,Calm,-,N/A,,Partly Cloudy,0,2012-02-26 16:53:00
12:53 PM,48.9,10.9,22,30.35,10.0,Calm,Calm,-,N/A,,Partly Cloudy,0,2012-02-26 17:53:00
1:53 PM,53.1,14.0,21,30.31,10.0,SW,3.5,-,N/A,,Clear,230,2012-02-26 18:53:00
2:53 PM,55.0,12.9,19,30.29,10.0,West,5.8,-,N/A,,Clear,270,2012-02-26 19:53:00
3:53 PM,55.9,10.9,17,30.30,10.0,Variable,3.5,-,N/A,,Clear,0,2012-02-26 20:53:00
4:53 PM,55.9,15.1,20,30.29,10.0,NNE,4.6,-,N/A,,Clear,30,2012-02-26 21:53:00
5:53 PM,53.1,15.1,22,30.30,10.0,Calm,Calm,-,N/A,,Clear,0,2012-02-26 22:53:00
6:53 PM,48.0,19.0,32,30.30,10.0,Calm,Calm,-,N/A,,Clear,0,2012-02-26 23:53:00
7:53 PM,37.0,23.0,57,30.31,10.0,Calm,Calm,-,N/A,,Clear,0,2012-02-27 00:53:00
8:53 PM,36.0,21.9,57,30.31,10.0,Calm,Calm,-,N/A,,Clear,0,2012-02-27 01:53:00
9:53 PM,37.9,23.0,55,30.32,10.0,Calm,Calm,-,N/A,,Clear,0,2012-02-27 02:53:00
10:53 PM,35.1,24.1,64,30.31,10.0,Calm,Calm,-,N/A,,Clear,0,2012-02-27 03:53:00
11:53 PM,39.9,21.9,49,30.31,10.0,SSE,3.5,-,N/A,,Clear,150,2012-02-27 04:53:00